User: anonymous   Login
Location: Mason Neck State Park
(38.6428°N, 77.1981°W)
Time: 23:59:46
(UTC-05:00)
Language:

Cosmos 1400 Rocket - Orbit

View from above orbital plane
View from above orbital plane
View from above satellite
View from above satellite

Ground track
Ground track

The orbit data is extracted from the following two-line orbital elements,

1 13403U 82079B   17022.93294531 +.00000129 +00000-0 +70297-5 0  9997
2 13403 081.1679 075.7051 0035021 038.8598 321.5133 15.06460687874631
Epoch (UTC): 22 January 2017 22:23:26
Eccentricity: 0.0035021
inclination: 81.1679°
perigee height: 523 km
apogee height: 571 km
right ascension of ascending node: 75.7051°
argument of perigee: 38.8598°
revolutions per day: 15.06460687
mean anomaly at epoch: 321.5133°
orbit number at epoch: 87463

The dashed part of the orbit path shows where the satellite is in the earth's shadow,  

DLR